Location: Archemont
(49.1579°N, 1.7598°E)
Time: 11:45:20
(UTC+00:00)

S-56A Canister/Altair - Pass Details

Date: 26 April 2024
Orbit: 638 x 2488 km, 38.9° (Epoch: 22 May)

Event Time Altitude Azimuth Distance (km) Brightness Sun altitude
Rises 19:41:57 0° 263° (W) 3,485 11.9 -6.6°
Reaches altitude 10° 19:44:49 10° 247° (WSW) 2,765 10.9 -7.0°
Maximum altitude 19:49:42 21° 200° (SSW) 2,424 10.0 -7.7°
Drops below altitude 10° 19:56:01 10° 156° (SSE) 3,698 10.5 -8.6°
Enters shadow 19:58:06 - 149° (SSE) 4,292 10.8 -8.8°
Sets 20:00:39 0° 143° (SE) 5,051 - -9.2°
